Regional Weather Roundup
Issued by NWS Newport/Morehead, NC

Current Version | Previous Version | Text Only | Print | Product List | Glossary Off
Versions: 1 2 3 4 5 6 7 8 9 10 11 12 13 14 15 16 17 18 19 20 21 22 23 24 25 26 27 28 29 30 31 32 33 34 35 36 37 38 39 40 41 42 43 44 45 46 47 48 49 50
000 ASUS42 KMHX 190625 RWRMHX WEATHER ROUNDUP FOR EASTERN NORTH CAROLINA NATIONAL WEATHER SERVICE NEWPORT/MOREHEAD CITY NC 200 AM EDT THU APR 19 2018 NOTE: "FAIR" INDICATES FEW OR NO CLOUDS BELOW 12,000 FEET WITH NO SIGNIFICANT WEATHER AND/OR OBSTRUCTIONS TO VISIBILITY NCZ015>017-031-032-045>047-102-103-190700- NORTH COAST CITY SKY/WX TMP DP RH WIND PRES REMARKS EDENTON FAIR 70 53 55 SW12G20 29.68F ELIZABETH CITY FAIR 63 54 72 S10 29.67F KITTY HAWK FAIR 63 53 71 S8 29.70F MANTEO FAIR 62 56 81 S16 29.72F $$ NCZ045>047-081-094-103-104-190700- CENTRAL COAST CITY SKY/WX TMP DP RH WIND PRES REMARKS FRISCO FAIR 66 58 75 SW21G32 29.79F $$ NCZ095-097-098-100-101-190700- SOUTHERN COAST CITY SKY/WX TMP DP RH WIND PRES REMARKS BEAUFORT FAIR 64 56 75 SW24G32 29.79F CEDAR ISLAND NOT AVBL JACKSONVILLE FAIR 71 50 47 SW16G22 29.77F PINEY ISLAND NOT AVBL WILMINGTON FAIR 68 52 56 SW12 29.82F $$ NCZ011>013-027>030-043-044-078>080-089-090>093-098-190700- COASTAL PLAIN CITY SKY/WX TMP DP RH WIND PRES REMARKS AHOSKIE FAIR 66 47 51 SW3 29.65F CLINTON FAIR 73 52 47 SW14G22 29.77S ELIZABETHTOWN FAIR 68 51 54 MISG 29.80S GOLDSBORO FAIR 70 49 46 SW13 29.71F GREENVILLE FAIR 70 50 49 SW12G20 29.73F HAVELOCK NOT AVBL KENANSVILLE FAIR 66 52 59 SW7 29.76F KINSTON FAIR 67 52 59 SW10 29.74F NEW BERN FAIR 67 51 56 SW12G25 29.77F RICHLANDS FAIR 70 51 51 SW14G29 29.78 ROCKY MOUNT FAIR 70 48 45 SW13 29.70F WASHINGTON FAIR 68 51 54 SW14 29.71F WHITEVILLE FAIR 69 50 51 SW13G20 29.82F $$ AMZ130-135-150-152-154-156-158-170-250-252-270-ANZ085-086-088-633-658-670-190700- MARINE OBSERVATIONS STATION/POSITION TIME TEMP WIND PRES WAVE SWELL AIR SEA DIR/SP/G HT/PER HT/PER (UTC) (F) (DEG/KT/KT) (MB) (FT/S) (FT/S) CHESAPEAKE LIGHT NOT AVBL 64 E VA BEACH 0550 56 50 210/ 19/ 21 1005.4 3/15 2/15 DUCK 0600 65 49 200/ 17/ 20 1004.5 2 E DUCK 0600 49 N/A 2/15 2/15 OREGON INLET 0600 190/ 19/ 23 N/A 13E OREGON INLT 0548 52 N/A 4/ 6 2/17 HATTERAS CG 0600 65 63 230/ 16/ 23 1008.3 DIAMOND BUOY 0610 69 230/ 23/ 33 1009.2 CAPE LOOKOUT 0600 230/ 17/ 22 1009.2 BEAUFORT LAB 0600 65 62 230/ 9/ 17 1009.0 30 SE NEW RVR IN 0608 69 66 220/ 19/ 27 1009.6 30 SE NEW RVR IN 0600 66 N/A 10/ 7 27 SE WRIGHTSVLE 0608 67 64 220/ 23/ 31 1010.7 5 SE WRIGHTSVLE 0608 65 60 240/ 17/ 21 1009.7 225 S CAPE HAT 0610 71 72 210/ 23/ 29 1015.0 41 SE CHARLESTON 0610 70 220/ 21/ 27 1012.8 $$

USA.gov is the U.S. government's official web portal to all federal, state and local government web resources and services.